Courses Olnoises

Olne-Spa-Olne (70.00 km)

dimanche 24 novembre 2019

Le classement original se trouve sur : http://courirpourleplaisir.be
COURSES OLNOISES
OLNE-SPA-OLNE
DISTANCE 70.22 km
dimanche 24 novembre 2019
               
        www.caletclasjog.be
Place dos NOM Catég. Pl/Cat. temps temps/km Vitesse
1 440 CARABIN SÉBASSTIEN S 1 5:22:37 04:36 13.06
2 36 DENEFFE GUILLAUME S 2 5:36:06 04:47 12.54
3 532 GRIFGNEE CHRISTOPHE S 3 5:48:41 04:58 12.08
4 735 PAHOS ANDREAS S 4 6:05:13 05:12 11.54
5 538 REMACLE OLIVIER S 5 6:12:58 05:19 11.30
6 312 JACOB FRANCOIS S 6 6:16:00 05:21 11.21
7 517 BERNAERTS TIM S 7 6:19:08 05:24 11.11
8 127 DE CLERCK JAN S 8 6:20:49 05:25 11.06
9 24 ROLAND FRANCOIS S 9 6:23:29 05:28 10.99
10 482 SERVAIS ALEX S 10 6:23:58 05:28 10.97
11 178 NIEUWENHUIS DAAN S 11 6:33:42 05:36 10.70
12 576 BLINDEMAN NIELS S 12 6:35:18 05:38 10.66
13 136 LAFFINEUR JÉRÔME S 13 6:35:22 05:38 10.66
14 352 LABBACI JACQUES V1 1 6:35:45 05:38 10.65
15 240 JOYE MAARTEN S 14 6:36:09 05:38 10.64
16 444 PROES MICKAEL S 15 6:36:31 05:39 10.63
17 672 DE COOMAN MICHAEL S 16 6:37:14 05:39 10.61
18 62 KINNEGIM IRENE A 1 6:41:16 05:43 10.50
19 283 HEINS FRÉDÉRIC S 17 6:42:46 05:44 10.46
20 167 VAN RANST WIEBE S 18 6:45:35 05:47 10.39
21 238 NICOLAIJ CHRISTOPHE S 19 6:46:02 05:47 10.38
22 162 SIMOEN LOUIS S 20 6:46:31 05:47 10.36
23 426 BREUER MARC V1 2 6:47:47 05:48 10.33
24 418 FRANCOIS BERTRAND S 21 6:48:54 05:49 10.30
25 300 BONHOMME JEAN-ROCH S 22 6:49:15 05:50 10.30
26 342 PORTETELLE ANTOINE S 23 6:50:08 05:50 10.27
27 414 MANETTE OLIVIER V1 3 6:50:43 05:51 10.26
28 639 LONCAR FREDDY V1 4 6:54:34 05:54 10.16
29 631 VAN EMELEN GILLES S 24 6:55:08 05:55 10.15
30 736 HENRIET NICOLAS S 25 6:56:05 05:56 10.13
31 533 VANIERSCHOT PATRICK V1 5 7:02:21 06:01 9.98
32 824 PEELEN ANTHONY S 26 7:03:10 06:02 9.96
33 299 OST VINCENT V1 6 7:03:13 06:02 9.96
34 608 TON LEONIE A 2 7:03:54 06:02 9.94
35 90 DIEDRICH ALEXANDER S 27 7:04:43 06:03 9.92
36 132 HAGELSTEIN CHRISTIAN V1 7 7:05:26 06:03 9.90
37 242 DOAT PIERRE V2 1 7:05:28 06:04 9.90
38 834 DRISSI TOUFITE D 1 7:05:47 06:04 9.90
39 508 PHILIPPOT HENRY S 28 7:08:05 06:06 9.84
40 380 MARCHAND STEPHANE V1 8 7:08:41 06:06 9.83
41 347 HAID JÉRÉMY S 29 7:09:30 06:07 9.81
42 243 ORDONEZ MANU S 30 7:09:40 06:07 9.81
43 394 MEERSMAN MARC V1 9 7:11:41 06:09 9.76
44 851 LEGRAND LIONEL S 31 7:13:41 06:11 9.72
45 33 CORNET RÉGIS V1 10 7:13:42 06:11 9.71
46 583 LOMBA RENAUD S 32 7:15:14 06:12 9.68
47 5 MAES GUILLAUME S 33 7:15:20 06:12 9.68
48 650 VAN HALDEREN MAARTEN S 34 7:15:49 06:12 9.67
49 52 MEUNIER FABIEN S 35 7:19:18 06:15 9.59
50 521 WIJNANDS BART V1 11 7:22:20 06:18 9.53
51 337 DETRAIT HUGUES S 36 7:23:47 06:19 9.49
52 169 DEBATY CHRISTOPHE V1 12 7:26:12 06:21 9.44
53 391 HEYMAN STEVEN S 37 7:27:33 06:22 9.41
54 425 LAOUREUX DENIS V1 13 7:28:47 06:23 9.39
55 63 TODEA RELI V1 14 7:29:34 06:24 9.37
56 620 SEVENS QUENTIN S 38 7:31:35 06:26 9.33
57 140 MATAGNE CHRISTOPHE S 39 7:31:51 06:26 9.32
58 600 ROBERT YVES V1 15 7:33:15 06:27 9.30
59 26 JACQUES EDDY V1 16 7:34:06 06:28 9.28
60 572 CALLENS JOHN V2 2 7:34:13 06:28 9.28
61 599 TERRIERE LORENZO S 40 7:34:36 06:28 9.27
62 151 PERIN LOGAN S 41 7:34:54 06:29 9.26
63 150 LAUNOIS JEROME S 42 7:35:22 06:29 9.25
64 458 LEYS BIRGER S 43 7:35:27 06:29 9.25
65 637 DELHAISE JEAN-MARTIN S 44 7:35:35 06:29 9.25
66 593 GEORIS SÉBASTIEN S 45 7:36:17 06:30 9.23
67 687 DAMBLON JOHNATHAN V1 17 7:36:20 06:30 9.23
68 204 HAEGHENS ALAIN-BRICE S 46 7:36:43 06:30 9.23
69 442 BALAND PAULIN S 47 7:36:55 06:30 9.22
70 265 KEUTGENS MARIO V1 18 7:37:25 06:31 9.21
71 503 LACROIX ANTOINE S 48 7:37:28 06:31 9.21
72 527 MASSEZ GEOFFREY S 49 7:37:32 06:31 9.21
73 836 LABRIQUE RENAUD S 50 7:38:04 06:31 9.20
74 484 BOUCART JÉRÔME S 51 7:38:39 06:32 9.19
75 86 CLAEYS STEFF S 52 7:39:06 06:32 9.18
76 148 HOSSELET KEVIN S 53 7:39:53 06:33 9.16
77 829 MOREAU BERNARD V1 19 7:39:55 06:33 9.16
78 217 DEHOTTAY NICOLAS S 54 7:40:05 06:33 9.16
79 363 DHAENENS DOLF S 55 7:40:08 06:33 9.16
80 423 PIRLET SIMON S 56 7:40:30 06:33 9.15
81 709 DEFOSSA ARNOULD S 57 7:40:35 06:34 9.15
82 820 SCHACHT WIM V2 3 7:40:49 06:34 9.14
83 209 MILON MICHAËL S 58 7:41:15 06:34 9.13
84 485 PIRLET MARTIN S 59 7:41:49 06:35 9.12
85 842 HARDENNE FREDERICK V2 4 7:41:53 06:35 9.12
86 397 DECHAMPS RAOUL V1 20 7:41:57 06:35 9.12
87 115 ROZET SEVAN S 60 7:42:13 06:35 9.12
88 496 LECOQ GAELLE D 2 7:42:46 06:35 9.10
89 420 DE FROIDMONT PIERRE S 61 7:43:19 06:36 9.09
90 421 DE FROIDMONT GUILLAUME JG 1 7:43:21 06:36 9.09
91 76 VAN BAEL DAVY S 62 7:43:38 06:36 9.09
92 350 PACYNA LAURA D 3 7:44:09 06:37 9.08
93 529 SALDEN DIETER V1 21 7:44:12 06:37 9.08
94 542 MICHEL GILDAS S 63 7:44:38 06:37 9.07
95 714 MALISOUX LAURENT V1 22 7:45:38 06:38 9.05
96 408 WILLAMME SIMON S 64 7:45:52 06:38 9.04
97 610 WUIDART VINCENT S 65 7:46:28 06:39 9.03
98 390 CHARLIER PIERRE V1 23 7:46:31 06:39 9.03
99 186 NASLAIN DAMIEN S 66 7:47:01 06:39 9.02
100 435 BENOIT NICOLAS S 67 7:47:04 06:39 9.02
101 271 WOUTERS STEFAAN V1 24 7:47:46 06:40 9.01
102 142 DECKERS OLIVIER S 68 7:49:21 06:41 8.98
103 689 SIMONIS FABIAN S 69 7:50:08 06:42 8.96
104 68 GALVEZ GAUTHIER S 70 7:50:45 06:42 8.95
105 438 JEUNECHAMPS PIERRE-PAUL S 71 7:51:17 06:43 8.94
106 541 DASSESSE THIBAUT V1 25 7:51:35 06:43 8.93
107 846 TERMEER ROBBIE S 72 7:52:00 06:43 8.93
108 117 PIRON DOMINIQUE V1 26 7:53:00 06:44 8.91
109 585 ANDRIES MICHAEL S 73 7:53:19 06:44 8.90
110 53 WEBER ANDREAS V2 5 7:54:18 06:45 8.88
111 223 DAELEN VINCENT V1 27 7:55:15 06:46 8.87
112 108 CHARLET ERIC V1 28 7:55:32 06:46 8.86
113 439 DETELLIER CHRISTOPHE S 74 7:56:18 06:47 8.85
114 404 BUYTAERT FRANK V1 29 7:57:29 06:48 8.82
115 176 CATALANOTTO MICHEL V1 30 7:57:52 06:48 8.82
116 680 GILLET PIERRE S 75 7:58:07 06:49 8.81
117 137 HASTIR RENAUD S 76 7:58:45 06:49 8.80
118 589 BYIERS BRUCE V1 31 7:59:20 06:50 8.79
119 65 SCHOUMACKERS BENOÎT V1 32 8:00:01 06:50 8.78
120 218 ROMNÉE AMBROISE S 77 8:00:51 06:51 8.76
121 878 SALMIN LOIC S 78 8:01:07 06:51 8.76
122 208 GOMEZ XAVIER V1 33 8:01:18 06:51 8.75
123 211 GARCIA FABRICE V1 34 8:01:21 06:51 8.75
124 280 COLLETTE KÉVIN S 79 8:02:13 06:52 8.74
125 607 GIVRON RÉGIS S 80 8:02:56 06:53 8.72
126 351 RAUSIN BRICE S 81 8:02:58 06:53 8.72
127 469 JEWASINSKI MICHEL V1 35 8:03:06 06:53 8.72
128 366 MEUNIER VINCENT S 82 8:03:55 06:53 8.71
129 584 HEYNS CHRISTOPHE V1 36 8:04:12 06:54 8.70
130 877 GILLARD MICHAEL V1 37 8:04:16 06:54 8.70
131 725 VAN DEN BOSSCHE DAVID V1 38 8:04:20 06:54 8.70
132 330 HERMAN GRÉGORY V1 39 8:04:34 06:54 8.70
133 827 FELLER JEROME V1 40 8:04:57 06:54 8.69
134 93 WEEMAES MICHIEL V1 41 8:05:23 06:55 8.68
135 457 VAN BUTSELE CHRISTINE A 3 8:05:31 06:55 8.68
136 548 SERVAIS ARNAUD S 83 8:06:20 06:56 8.66
137 326 BASTIEN GUILLAUME V1 42 8:06:33 06:56 8.66
138 406 JODOGNE RAPHAËL V1 43 8:06:40 06:56 8.66
139 643 BASTIN ROBERT V1 44 8:07:32 06:57 8.64
140 422 DELSEMME FABRICE V1 45 8:07:47 06:57 8.64
141 434 MAGERMANS VINCENT V1 46 8:09:02 06:58 8.62
142 219 FISCHER THOMAS V1 47 8:09:26 06:58 8.61
143 81 BARBIER THIBAULT S 84 8:11:06 07:00 8.58
144 174 PIRON FRÉDÉRIC V1 48 8:12:08 07:00 8.56
145 189 JOSEPH BERNARD V1 49 8:13:16 07:01 8.54
146 95 JONKERS MENNO V1 50 8:13:26 07:02 8.54
147 744 LECLÈRE SÉBASTIEN S 85 8:13:28 07:02 8.54
148 460 SABBE KRIS JG 2 8:13:57 07:02 8.53
149 588 LEBRUN XAVIER V1 51 8:14:46 07:03 8.52
150 206 DELFOSSE ALAIN S 86 8:14:56 07:03 8.51
151 510 MATEI CRISTIAN S 87 8:15:48 07:04 8.50
152 546 JACOB-PAQUAY ERIC V1 52 8:18:22 07:06 8.45
153 264 KUYSTERMANS TOM V1 53 8:18:25 07:06 8.45
154 358 WANTE GUILLAUME V1 54 8:18:26 07:06 8.45
155 158 SIMON MARC V3 1 8:18:49 07:06 8.45
156 602 DELVAUX GARY S 88 8:19:22 07:07 8.44
157 266 POULAIN PASCAL V1 55 8:19:32 07:07 8.43
158 575 GOUJON VIRGILIO S 89 8:19:55 07:07 8.43
159 490 DEWAEL YANNICK V1 56 8:20:00 07:07 8.43
160 291 BOURS SAMUEL S 90 8:20:03 07:07 8.43
161 329 GOFFARD FRÉDÉRIC V1 57 8:20:12 07:07 8.42
162 21 HOVINE ANTONIN S 91 8:20:17 07:07 8.42
163 624 BRACKE SAM S 92 8:20:22 07:08 8.42
164 507 FRINGS EULE V2 6 8:20:31 07:08 8.42
165 845 MULLER ALAIN V1 58 8:21:14 07:08 8.41
166 847 NELISSEN JOHNY V1 59 8:23:23 07:10 8.37
167 621 ROTHELIN JÉRÔME S 93 8:24:55 07:11 8.34
168 328 LAMBION HUGUES V1 60 8:25:11 07:12 8.34
169 389 SCHMETZ GILLES S 94 8:25:17 07:12 8.34
170 244 DEROUBAIX ANTOINE S 95 8:26:17 07:13 8.32
171 535 SMET BART V1 61 8:27:00 07:13 8.31
172 615 DENIS PIERRE S 96 8:27:14 07:13 8.31
173 141 HEILIJGERS MAURICE S 97 8:27:43 07:14 8.30
174 737 RANDAXHE SÉBASTIEN S 98 8:28:21 07:14 8.29
175 537 LEJEUNE JEAN-FRANÇOIS V1 62 8:28:49 07:15 8.28
176 349 SLAGERS ANTON V2 7 8:29:05 07:15 8.28
177 690 LEGROS FRÉDÉRIC V1 63 8:29:35 07:15 8.27
178 135 REGA ALAIN V2 8 8:29:57 07:16 8.26
179 277 SUTTO LIONEL V1 64 8:30:34 07:16 8.25
180 402 LAFFINEUSE CHRISTOPHE S 99 8:31:26 07:17 8.24
181 578 HEYDEN COLINE D 4 8:31:28 07:17 8.24
182 398 THONNARD SÉVERINE D 5 8:31:36 07:17 8.24
183 399 ROSA HUGUES V1 65 8:31:39 07:17 8.23
184 160 SUDIRO JORDAN S 100 8:31:44 07:17 8.23
185 472 FEYEN BENOIT V1 66 8:32:11 07:18 8.23
186 734 ORBAN COLINNE D 6 8:32:15 07:18 8.23
187 530 LOUVIAUX CINDY D 7 8:32:45 07:18 8.22
188 632 BEULEN BRUNO S 101 8:33:14 07:19 8.21
189 682 GOMBEER YVES S 102 8:33:33 07:19 8.20
190 8 VAN WISSE MARK S 103 8:33:49 07:19 8.20
191 37 WAUTELET DAMIEN S 104 8:34:06 07:19 8.20
192 103 CARELS DIDIER V1 67 8:34:45 07:20 8.19
193 83 BOURGEOIS RAPHAËL S 105 8:34:47 07:20 8.18
194 592 BIERMANS PHILIPPE V1 68 8:34:57 07:20 8.18
195 360 FAUCONNIER JEAN-FRANÇOIS V1 69 8:35:02 07:20 8.18
196 87 HOEK MARTIJN S 106 8:35:12 07:20 8.18
197 516 WEIS BENJAMIN S 107 8:35:25 07:20 8.17
198 357 ARQUIN THIBAUT S 108 8:35:27 07:20 8.17
199 710 JUANOS CABANAS JORDI S 109 8:36:29 07:21 8.16
200 612 VINCENT ADRIEN JG 3 8:36:40 07:21 8.15
201 654 PIJCKE GAUTIER V1 70 8:36:55 07:22 8.15
202 98 LEPOUTRE ANTOINE V1 71 8:36:58 07:22 8.15
203 641 RICHELLE OLIVIER S 110 8:37:21 07:22 8.14
204 523 QUADFLIEG MARC V3 2 8:37:31 07:22 8.14
205 305 DÉCARPENTRIE MATHIAS S 111 8:37:42 07:22 8.14
206 201 WAC QUENTIN S 112 8:38:02 07:23 8.13
207 195 CASTELAIN JEAN-LUC V2 9 8:38:08 07:23 8.13
208 430 FREGONA ALEXANDRE S 113 8:38:12 07:23 8.13
209 568 BOVY GEOFFREY V1 72 8:38:17 07:23 8.13
210 636 PIRET GAUTHIER S 114 8:38:19 07:23 8.13
211 685 MULLENDER JULIEN S 115 8:38:26 07:23 8.13
212 165 VAN DER MEERSCH ANDY S 116 8:39:13 07:24 8.11
213 494 EVELETTE JEAN V2 10 8:39:43 07:24 8.11
214 830 MARIQUE JEAN CHRISTOPHE V1 73 8:39:47 07:24 8.11
215 152 VLEMINCKX MATTHIAS S 117 8:39:49 07:24 8.11
216 29 DESIDERI COLIN V1 74 8:40:26 07:25 8.10
217 183 FROMENT AURÉLIEN S 118 8:40:57 07:25 8.09
218 239 MALGRANGE BRIGITTE A 4 8:41:10 07:25 8.08
219 571 BERNARDI LAURENT S 119 8:41:21 07:25 8.08
220 139 VAN HOEF ROB S 120 8:42:31 07:26 8.06
221 633 CLAUS SOFIE A 5 8:42:48 07:27 8.06
222 170 TAZIAUX MORGAN S 121 8:43:23 07:27 8.05
223 220 FISCHER BÄRBEL A 6 8:43:31 07:27 8.05
224 701 WERTZ LUC V2 11 8:43:36 07:27 8.05
225 428 SIMONS JORG V1 75 8:43:39 07:27 8.05
226 511 VANDOORNE JEROEN S 122 8:44:02 07:28 8.04
227 331 DELVAUX AXEL V1 76 8:44:11 07:28 8.04
228 385 MAHY SAMUEL S 123 8:44:34 07:28 8.03
229 857 TOUPIN TRINCKEL HUGO S 124 8:44:37 07:28 8.03
230 164 VAN DER AA PETER V1 77 8:45:02 07:29 8.02
231 635 SEVERIJNS TOM V1 78 8:45:08 07:29 8.02
232 71 VINCKENBOSCH JEAN-SÉBASTIEN S 125 8:45:39 07:29 8.02
233 369 MICHEL IVES V2 12 8:45:44 07:29 8.01
234 462 TREFOIS ANTOINE V1 79 8:45:51 07:29 8.01
235 58 PEETERS NICO S 126 8:45:53 07:29 8.01
236 3 TASSART MAXIME S 127 8:45:59 07:29 8.01
237 644 HERMANT PHILIPPE V2 13 8:46:04 07:29 8.01
238 441 WENKIN LOUISE D 8 8:46:12 07:30 8.01
239 666 KOOLS MARTIJN S 128 8:46:58 07:30 8.00
240 179 PIGMANS WENDY D 9 8:47:03 07:30 7.99
241 230 UIJTDEHAAG ANTOON V1 80 8:47:15 07:30 7.99
242 258 DEWEZ GEOFFROY S 129 8:48:14 07:31 7.98
243 718 GIACOMELLI SERENO S 130 8:48:17 07:31 7.98
244 163 FONTAINE CINDY D 10 8:48:27 07:32 7.97
245 153 PIESSENS RITCHIE S 131 8:49:01 07:32 7.96
246 784 LIETARD LAURENT V1 81 8:50:26 07:33 7.94
247 596 NUTTIN JULIEN S 132 8:50:41 07:33 7.94
248 676 HERCOT PIERRE-LUC S 133 8:50:52 07:34 7.94
249 688 BREMMERS PAUL V1 82 8:50:58 07:34 7.94
250 241 LEJEUNE PHILIPPE V2 14 8:51:15 07:34 7.93
251 388 TORNABENE JONATHAN S 134 8:51:35 07:34 7.93
252 361 VOLDERS PHILIPPE V1 83 8:51:39 07:34 7.93
253 67 HANSENNE JEROME V1 84 8:52:35 07:35 7.91
254 51 ELLEBOUDT CATHERINE D 11 8:53:01 07:35 7.90
255 445 TALPE PIERRE S 135 8:53:06 07:35 7.90
256 806 JACOBS KEN S 136 8:53:21 07:36 7.90
257 634 VERBEEK PATRICK V1 85 8:53:27 07:36 7.90
258 488 TOLBECQ STEPHANE V1 86 8:53:42 07:36 7.89
259 751 FANIELLE LAURENT V1 87 8:54:17 07:37 7.89
260 248 PINCKAERS ROBERT V2 15 8:54:29 07:37 7.88
261 359 HAPPART GRÉGORY V1 88 8:54:31 07:37 7.88
262 346 SCHMETZ BERNARD V2 16 8:54:33 07:37 7.88
263 297 TEMMERMAN MAXIME S 137 8:54:36 07:37 7.88
264 445 TALPE PIERRE S 138 8:55:39 07:38 7.87
265 867 BERTRAND YVES V1 89 8:55:58 07:38 7.86
266 138 BONNI ALEX S 139 8:56:04 07:38 7.86
267 659 LEONARDI MIKAEL S 140 8:56:06 07:38 7.86
268 498 FLAMENT PIERRE S 141 8:56:38 07:39 7.85
269 400 BIHAIN BERNARD V1 90 8:56:49 07:39 7.85
270 409 BOUCETTA WANESSE S 142 8:57:27 07:39 7.84
271 749 RENOUARD LOIC S 143 8:57:33 07:39 7.84
272 383 BEVERNAEGIE CHRIS V1 91 8:57:52 07:40 7.83
273 77 LENOIR ANDY S 144 8:58:05 07:40 7.83
274 222 BAETENS GEERT V2 17 8:58:10 07:40 7.83
275 182 GANDIN ETIENNE S 145 8:58:52 07:40 7.82
276 493 GUIOT CÉDRIC S 146 8:59:11 07:41 7.81
277 200 ROYEN CÉDRIC S 147 8:59:36 07:41 7.81
278 450 BOUSSAUW NICO V1 92 9:00:12 07:42 7.80
279 752 SCHRAUWEN LIEN A 7 9:00:16 07:42 7.80
280 292 DEGÉE THOMAS S 148 9:00:24 07:42 7.80
281 652 DELAERE WIM V2 18 9:00:29 07:42 7.80
282 114 DROUMART DAMIEN S 149 9:00:35 07:42 7.79
283 344 REMAN SIMON S 150 9:01:39 07:43 7.78
284 301 ZHANG HUANYU D 12 9:02:16 07:43 7.77
285 203 LAVIOLETTE COLIN S 151 9:02:17 07:43 7.77
286 309 BELLENS BART S 152 9:02:37 07:44 7.76
287 325 HOFMANN GÉRARD V1 93 9:02:42 07:44 7.76
288 579 PEFFER VINCENT V2 19 9:03:07 07:44 7.76
289 111 ROBINET DANY S 153 9:04:22 07:45 7.74
290 143 LECLERCQ YANNICK S 154 9:04:27 07:45 7.74
291 653 SCHWAIGER YVES V1 94 9:04:49 07:46 7.73
292 341 REMAN BRUNO S 155 9:04:56 07:46 7.73
293 253 SLEGERS NICOLAS S 156 9:06:02 07:47 7.72
294 304 HUBEAUX VINCENT V1 95 9:06:07 07:47 7.72
295 177 VANAISE TOMMY S 157 9:06:30 07:47 7.71
296 303 NGO LIKENG CHRISTINE A 8 9:07:23 07:48 7.70
297 817 LEGENDRE NINON A 9 9:07:26 07:48 7.70
298 881 VAN DEN BOSSCHE BRUNO V1 96 9:07:33 07:48 7.69
299 544 BEGUIN OLIVIER V1 97 9:08:17 07:48 7.68
300 678 DE GRAAF JAAP V2 20 9:08:23 07:49 7.68
301 214 HUMBLET VIGINIE A 10 9:08:36 07:49 7.68
302 821 KEMPINSKI ROGER V1 98 9:08:52 07:49 7.68
303 802 DELANDSHEERE LIONEL S 158 9:09:01 07:49 7.67
304 387 NICAISE SÉVERINE A 11 9:09:05 07:49 7.67
305 471 TRULLEMANS JEAN-LUC V1 99 9:11:21 07:51 7.64
306 43 PRÉVOT MAXIME S 159 9:12:30 07:52 7.63
307 340 LEMAITRE PAUL V1 100 9:12:46 07:52 7.62
308 134 BERODE JÉRÔME V1 101 9:13:27 07:53 7.61
309 684 COLSON DAVID S 160 9:13:30 07:53 7.61
310 748 THONNARD MARIE HELENE A 12 9:14:00 07:53 7.61
311 573 SANGIOVANNI CYRIL S 161 9:14:03 07:53 7.60
312 476 COULÉE MATHIEU S 162 9:14:08 07:53 7.60
313 324 KOBYLARCZYK SEBASTIAN V1 102 9:14:11 07:54 7.60
314 69 SARTOR ENRICO S 163 9:14:18 07:54 7.60
315 278 DURU MARTINE A 13 9:15:02 07:54 7.59
316 315 COLLIGNON AXEL S 164 9:15:44 07:55 7.58
317 316 DELFOSSE ANTOINE S 165 9:15:47 07:55 7.58
318 338 RITROVATO SYLVAIN V1 103 9:16:11 07:55 7.58
319 22 ZAMPIERI ALEXANDRE V1 104 9:16:58 07:56 7.56
320 586 DE BOCK CHRISTOF V1 105 9:17:22 07:56 7.56
321 743 WYAIME ANTOINE S 166 9:17:36 07:56 7.56
322 486 MATHONET GILLES S 167 9:17:39 07:56 7.56
323 661 GIACCHETTA STÉPHANE V1 106 9:18:12 07:57 7.55
324 674 GROSDENT JONATHAN S 168 9:18:22 07:57 7.55
325 499 DURAND PAULINE D 13 9:18:25 07:57 7.55
326 491 VERDURE KEVIN S 169 9:18:29 07:57 7.54
327 157 NELLES CHARLES V2 21 9:18:52 07:58 7.54
328 854 CHARLIER JEAN FRANCOIS S 170 9:19:02 07:58 7.54
329 39 VAN BEVEREN MAARTEN S 171 9:19:19 07:58 7.53
330 616 SIMONIS PAUL-JACQUES S 172 9:20:11 07:59 7.52
331 306 DE MOOR MARTIN S 173 9:22:05 08:00 7.50
332 313 DU BOIS PIERRE-YVES S 174 9:22:07 08:00 7.50
333 850 RAUSIN BERNARD V2 22 9:22:32 08:01 7.49
334 320 DAUBY PIERRE S 175 9:23:14 08:01 7.48
335 534 SCAFF MATHIEU S 176 9:23:17 08:01 7.48
336 30 IURI GIANFRANCO S 177 9:23:18 08:01 7.48
337 237 VAN DINTEREN TWAN S 178 9:23:23 08:01 7.48
338 412 BODSON FRÉDÉRIC V1 107 9:23:49 08:02 7.47
339 595 HEYNEN FRANÇOIS S 179 9:23:51 08:02 7.47
340 727 DEMOULIN BERNARD V1 108 9:24:16 08:02 7.47
341 591 CORIN EDWIN S 180 9:25:14 08:03 7.45
342 730 SACRE BENOIT V2 23 9:25:33 08:03 7.45
343 410 JUNGERS MIGUEL S 181 9:25:35 08:03 7.45
344 28 BEGOT JEREMY S 182 9:25:48 08:03 7.45
345 453 MERCIER MICHEL V2 24 9:26:50 08:04 7.43
346 706 KOURI ALI V2 25 9:26:53 08:04 7.43
347 552 DARON MICHAËL V1 109 9:27:18 08:05 7.43
348 192 GHESQUIERE PATRICK V1 110 9:27:23 08:05 7.43
349 381 GUNS GLENN S 183 9:28:12 08:05 7.42
350 729 JOWAY ERIC V2 26 9:28:18 08:06 7.41
351 47 TEICHER MATHIEU V1 111 9:29:22 08:06 7.40
352 715 KLEYNEN LUC V3 3 9:29:26 08:07 7.40
353 670 GELDERMANS MANOLIS V1 112 9:30:05 08:07 7.39
354 550 FORTHOMME PIERRE V1 113 9:30:18 08:07 7.39
355 465 VAN DE WYER GAETAN V1 114 9:31:12 08:08 7.38
356 125 DE COCK MICHAEL V1 115 9:32:00 08:09 7.37
357 828 DE CLIPPELEER STEFAN V1 116 9:32:02 08:09 7.37
358 754 HEYMANS JEREMY S 184 9:32:09 08:09 7.36
359 78 ZADWORNY FRANÇOIS S 185 9:32:44 08:09 7.36
360 80 LOURTIE HUGO JG 4 9:32:47 08:09 7.36
361 79 MULLERS JULIEN S 186 9:32:50 08:09 7.36
362 282 LANFER STEPHAN S 187 9:32:57 08:10 7.35
363 270 HERMES-JANSEN THOMAS V1 117 9:33:01 08:10 7.35
364 57 SCHILTZ FRÉDÉRIC V1 118 9:33:38 08:10 7.35
365 801 CRASBORN JULIEN S 188 9:34:08 08:11 7.34
366 286 VERSTICHEL ALAIN V2 27 9:34:13 08:11 7.34
367 146 MEAD JONATHAN S 189 9:34:26 08:11 7.33
368 147 RABALLAND MARION D 14 9:34:28 08:11 7.33
369 750 URBAIN JEROME S 190 9:34:32 08:11 7.33
370 226 SPIERTZ FRANCOIS S 191 9:35:10 08:11 7.33
371 364 OLLEVIER MARIO V2 28 9:35:15 08:12 7.32
372 698 VANMOLECOT STEVEN S 192 9:35:26 08:12 7.32
373 495 HERMANS STEVEN V1 119 9:35:38 08:12 7.32
374 872 LEJEUNE CHRISTOPHE V1 120 9:35:51 08:12 7.32
375 860 CENNE YVES V1 121 9:36:02 08:12 7.31
376 865 KEGELS LAURENT V1 122 9:36:04 08:12 7.31
377 433 COETSIER JEROME S 193 9:36:12 08:12 7.31
378 481 DE SCHOENMACKERS THOMAS S 194 9:36:18 08:12 7.31
379 91 GEUNES ARNO S 195 9:37:06 08:13 7.30
380 549 JANSEN ANGELIQUE A 14 9:38:06 08:14 7.29
381 540 DE VRIES KOEN V3 4 9:38:09 08:14 7.29
382 656 DE LENG EDWARD V2 29 9:38:14 08:14 7.29
383 156 WAUTERS BART S 196 9:38:17 08:14 7.29
384 427 VAN IMPE MICHIEL S 197 9:38:50 08:15 7.28
385 293 VAN HOOREBEKE PIETER S 198 9:40:09 08:16 7.26
386 14 TIELEMAN ANN A 15 9:40:16 08:16 7.26
387 11 WILPUTTE SÉBASTIEN S 199 9:40:26 08:16 7.26
388 711 BAIWIR ANTHONY S 200 9:40:33 08:16 7.26
389 553 EVERAERT BENJAMIN S 201 9:40:44 08:16 7.26
390 547 COMPERE MICHEL S 202 9:40:47 08:16 7.25
391 308 VAUTIER BRUNO V2 30 9:41:05 08:16 7.25
392 257 JEWASINSKI SERGE V1 123 9:41:41 08:17 7.24
393 874 WAGNER FRANK V1 124 9:41:52 08:17 7.24
394 745 CHAIDRON RAPHAËL S 203 9:42:23 08:18 7.23
395 776 GUILLERM DAVID V1 125 9:43:52 08:19 7.22
396 251 JORIS LIONEL V1 126 9:44:02 08:19 7.21
397 246 MOLITOR PHILIPPE V2 31 9:44:08 08:19 7.21
398 726 VERELLEN FRANKY V1 127 9:44:18 08:19 7.21
399 259 VERSLYPE ALAN S 204 9:44:42 08:20 7.21
400 478 RAUSIN GAUTHIER S 205 9:44:45 08:20 7.21
401 213 LALOYAUX DORIAN S 206 9:44:48 08:20 7.20
402 120 ZACHHELLO RENATO V2 32 9:44:52 08:20 7.20
403 343 IAZZAG TAHAR V2 33 9:44:57 08:20 7.20
404 518 DEBRABANDERE AMAURY V2 34 9:45:00 08:20 7.20
405 526 GILLET FABRICE V1 128 9:45:19 08:20 7.20
406 149 FLAPPER DAAN V2 35 9:45:45 08:20 7.19
407 839 ANDRE CARLOS V2 36 9:46:10 08:21 7.19
408 231 ZEILSTRA JOHAN V2 37 9:46:14 08:21 7.19
409 671 CATINUS YOURI S 207 9:46:21 08:21 7.19
410 594 HENROT CÉDRIC V1 129 9:46:23 08:21 7.19
411 551 CHEBIL RAMI V1 130 9:46:26 08:21 7.18
412 376 CARRE CÉSAR JG 5 9:46:45 08:21 7.18
413 618 MARQUET VIVIEN S 208 9:47:36 08:22 7.17
414 558 CUPPENS BENOIT V1 131 9:48:01 08:22 7.17
415 263 CUVELIER SERGE V2 38 9:48:12 08:23 7.16
416 570 HOST NICOLAS V1 132 9:48:24 08:23 7.16
417 128 FABRE LIONEL V1 133 9:48:39 08:23 7.16
418 463 GHYSELS FRÉDÉRIC V1 134 9:48:49 08:23 7.16
419 474 MANDERLIER MARC V2 39 9:49:07 08:23 7.15
420 449 MONCOUSIN FABIEN S 209 9:49:09 08:23 7.15
421 260 LORPHÈVRE ERIC V1 135 9:49:43 08:24 7.14
422 853 DU BOIS FREDERIC V2 40 9:50:12 08:24 7.14
423 719 CLAES KAREN D 15 9:50:33 08:25 7.13
424 284 BERTRAND DAVID S 210 9:51:53 08:26 7.12
425 627 COLLERY BENOIT S 211 9:52:33 08:26 7.11
426 60 DOUTRELIGNE SÉBASTIEN S 212 9:52:53 08:27 7.11
427 61 RICARDO DAVID V1 136 9:52:54 08:27 7.11
428 166 HOLDERBEKE YOURI V1 137 9:53:16 08:27 7.10
429 290 MAGONETTE XAVIER S 213 9:53:37 08:27 7.10
430 590 SCOLAS ETIENNE S 214 9:53:49 08:27 7.10
431 254 RAMLOT DAMIEN S 215 9:53:51 08:27 7.10
432 502 GROGNARD RÉGIS S 216 9:54:11 08:28 7.09
433 501 ZUNE FABRICE V1 138 9:54:15 08:28 7.09
434 464 MAZZAGLIA PIETRO V1 139 9:54:34 08:28 7.09
435 697 MAES LUC V2 41 9:54:42 08:28 7.08
436 826 PERDRIX SERGE V2 42 9:54:49 08:28 7.08
437 611 POSKIN FRANÇOIS S 217 9:54:55 08:28 7.08
438 99 LEROY STÉPHANIE A 16 9:54:57 08:28 7.08
439 113 ISERENTANT CARINE A 17 9:55:02 08:28 7.08
440 732 FOBE DIDIER V1 140 9:55:06 08:28 7.08
441 353 POSKIN JULIEN S 218 9:55:09 08:29 7.08
442 487 ROUCOURT LOUIS S 219 9:55:12 08:29 7.08
443 249 AUBERTIN DAMIEN S 220 9:55:17 08:29 7.08
444 355 BONIVER FREDERIC V1 141 9:55:23 08:29 7.08
445 356 HAUBRECHTS VALERIE A 18 9:55:24 08:29 7.08
446 667 DE WITTE JOERI V1 142 9:55:57 08:29 7.07
447 202 MASSON CHARLES S 221 9:56:00 08:29 7.07
448 92 BOEYKENS NIKOLAAS V1 143 9:56:15 08:29 7.07
449 70 ROOSE TONY V1 144 9:56:51 08:30 7.06
450 617 HERBOTS KRIS V2 43 9:58:08 08:31 7.04
451 129 SCHOMMERS MATHIEU S 222 9:58:39 08:31 7.04
452 377 VANDERHAEGE OLIVIER V1 145 9:58:55 08:32 7.03
453 159 RAMAKERS SÉBASTIEN V1 146 9:59:05 08:32 7.03
454 681 BIELEN JEROEN V1 147 9:59:08 08:32 7.03
455 224 VAN REEN GIJS V1 148 9:59:22 08:32 7.03
456 852 HENSCHEID STEFAN V2 44 9:59:25 08:32 7.03
457 582 DELENS FRÉDÉRIC V1 149 9:59:44 08:32 7.03
458 250 AGLAVE ANTOINE S 223 10:00:13 08:33 7.02
459 18 DE HEPCEE BRUNO V2 45 10:00:19 08:33 7.02
460 746 FRANCISE PATRICK V1 150 10:02:00 08:34 7.00
461 512 COQUELET JOFFREY V1 151 10:02:02 08:34 7.00
462 345 HALSEMA GERARD V2 46 10:04:04 08:36 6.98
463 73 HENSSEN MAURICE V1 152 10:04:08 08:36 6.97
464 704 GRANVILLE DIMITRI V1 153 10:04:34 08:37 6.97
465 866 KOPETZM CHRISTOPHE V2 47 10:05:42 08:38 6.96
466 841 MORLIGMEM GREG V1 154 10:06:15 08:38 6.95
467 173 STOKKINK JEROEN W S 224 10:06:40 08:38 6.95
468 623 TEODORI EMANUELE S 225 10:06:43 08:38 6.94
469 559 BOUTET CEDRIC S 226 10:06:46 08:38 6.94
470 519 CORNUAU DAMIEN V1 155 10:06:57 08:39 6.94
471 515 LABOUSSOLE OLIVIER V1 156 10:07:01 08:39 6.94
472 235 DORELEIJERS YOURI S 227 10:07:21 08:39 6.94
473 298 LIBOTTE VIRGINIE A 19 10:08:08 08:40 6.93
474 556 ROYEN JULIEN S 228 10:10:10 08:41 6.91
475 311 DEOM QUENTIB S 229 10:10:25 08:42 6.90
476 563 KHRONIS MANUEL V2 48 10:10:58 08:42 6.90
477 520 DIEU SÉBASTIEN S 230 10:11:49 08:43 6.89
478 702 CRANSVELD CHRISTIANE A 20 10:11:54 08:43 6.89
479 703 LEUPE JEAN-LOUIS V2 49 10:11:56 08:43 6.89
480 459 TACK ARNAUD V1 157 10:12:13 08:43 6.88
481 785 MALMENDIER MATHIEU S 231 10:12:26 08:43 6.88
482 32 MÜNSTER BERNWARD V2 50 10:12:47 08:44 6.88
483 723 HEUSSCHEN DOMINIQUE V2 51 10:13:01 08:44 6.87
484 370 KAESMACHER PHILIPPE V2 52 10:14:17 08:45 6.86
485 42 HERMENT STEPHAN V2 53 10:14:48 08:45 6.85
486 109 DHONDT FREDERIC V1 158 10:15:22 08:46 6.85
487 110 FRERE ISABELLE A 21 10:15:25 08:46 6.85
488 276 ABAD LAMAS PATRICIA A 22 10:15:48 08:46 6.84
489 525 ALLEGAERT FREDERICK S 232 10:16:16 08:47 6.84
490 797 FROONINCKX AUDREY D 16 10:18:14 08:48 6.82
491 803 TRAINA CHRISTOPHE V1 159 10:18:18 08:48 6.81
492 124 NOEL FRANCK V1 160 10:18:47 08:49 6.81
493 531 HOFSTRA TSJEARD S 233 10:19:34 08:49 6.80
494 569 LOOMANS DIDIER V1 161 10:19:40 08:49 6.80
495 626 CHRISTIAENS CINDY D 17 10:19:44 08:50 6.80
496 123 DEN OTTER RENÉ V2 54 10:20:29 08:50 6.79
497 17 KOOIJMAN ED V2 55 10:20:32 08:50 6.79
498 96 KAISER PHILIPP S 234 10:21:04 08:51 6.78
499 677 LAZZARI GEOFFREY V1 162 10:21:18 08:51 6.78
500 844 HASTIR EMILIEN S 235 10:21:23 08:51 6.78
501 23 BOUILLON JEAN-PASCAL V1 163 10:21:26 08:51 6.78
502 473 LEPERS FRANÇOIS S 236 10:21:43 08:51 6.78
503 281 LAHTI LAURA A 23 10:22:35 08:52 6.77
504 855 LEDUC DAVID V1 164 10:23:37 08:53 6.76
505 461 GEELEN BÉATRICE A 24 10:24:28 08:54 6.75
506 191 WAVREILLE JEAN-CHRISTOPHE S 237 10:26:02 08:55 6.73
507 691 PERIN CHRISTOPHER S 238 10:26:26 08:55 6.73
508 696 LAMBOTTE CHRISTOPHE V1 165 10:26:32 08:55 6.72
509 221 GILET ARNAUD V1 166 10:26:44 08:55 6.72
510 130 POSKIN THIERRY V2 56 10:27:40 08:56 6.71
511 285 EMPAIN DANIEL V1 167 10:27:58 08:57 6.71
512 629 DALATAS MEHMET V1 168 10:28:26 08:57 6.70
513 795 ELSEN MADY A 25 10:30:11 08:58 6.69
514 574 REMACLE SÉBASTIEN S 239 10:30:14 08:58 6.69
515 536 CHAVET MATHIEU S 240 10:30:20 08:59 6.68
516 683 BRUINS BERT V2 57 10:31:02 08:59 6.68
517 692 BAGUETTE MANU V1 169 10:32:16 09:00 6.66
518 25 GASON FABRICE V1 170 10:32:21 09:00 6.66
519 822 COLA EMMANUEL V1 171 10:32:40 09:01 6.66
520 74 BISSOT LIONEL V1 172 10:33:44 09:01 6.65
521 862 LINCE GUY V2 58 10:35:11 09:03 6.63
522 368 L'HOIR GAËTAN V1 173 10:35:17 09:03 6.63
523 870 CLERBOIS CHRISTOPHE V1 174 10:36:47 09:04 6.62
524 267 LEMOINE FANNY A 26 10:36:52 09:04 6.62
525 268 VAN DEN EEDE NOËLLE A 27 10:36:55 09:04 6.62
526 597 CLOSE DOMINIQUE V2 59 10:37:03 09:04 6.61
527 587 DUMOULIN JEAN-LUC V1 175 10:39:10 09:06 6.59
528 452 JESSA JOHAN V1 176 10:39:35 09:06 6.59
529 509 DI PRETORO AXEL S 241 10:40:01 09:07 6.58
530 45 PETITJEAN THOMAS V1 177 10:40:23 09:07 6.58
531 181 BERTRAND AUDREY D 18 10:41:13 09:08 6.57
532 180 FEDSOSEEW HERVÉ V1 178 10:41:36 09:08 6.57
533 446 JENNEN PATRICK V2 60 10:41:53 09:08 6.56
534 468 SZPRUCH MALGORZATA D 19 10:42:48 09:09 6.55
535 307 PIERLOT NICOLAS V1 179 10:43:45 09:10 6.55
536 225 MARTIN MOUT S 242 10:43:47 09:10 6.54
537 72 HEIJNEN THOMAS S 243 10:43:55 09:10 6.54
538 657 LEMETTE JEAN-GUISLAIN S 244 10:44:19 09:11 6.54
539 372 MOROSO JEAN-FRANÇOIS V1 180 10:44:21 09:11 6.54
540 565 JOSSE PHILIPPE V2 61 10:46:14 09:12 6.52
541 879 MAUS DE COLLEY MAXIMILLIEN S 245 10:46:16 09:12 6.52
542 858 SAEN DOMINIQUE V2 62 10:46:51 09:13 6.51
543 255 SUSTRONCK ELISABETH D 20 10:46:57 09:13 6.51
544 604 SAUREN DESIREE A 28 10:48:15 09:14 6.50
545 605 WAUTER SUSANNE A 29 10:48:17 09:14 6.50
546 699 BJÖRN NIEHENKE S 246 10:48:20 09:14 6.50
547 416 JABAS BERNARD V2 63 10:49:27 09:15 6.49
548 554 PONCELET STÉPHAN V2 64 10:50:36 09:16 6.48
549 354 LARUE FABRICE V1 181 10:50:39 09:16 6.48
550 880 KRAUCH BRUNO S 247 10:50:43 09:16 6.47
551 252 DE HERDT PHILIP S 248 10:50:51 09:16 6.47
552 102 DE SCHOUWER SENNE S 249 10:50:54 09:16 6.47
553 247 KEULEERS SANDER S 250 10:50:56 09:16 6.47
554 188 PETRIAUX MARC V1 182 10:51:44 09:17 6.46
555 212 BORTOLOTTI EMMANUEL V1 183 10:53:47 09:19 6.44
556 505 PALUMBO PINO V3 5 10:53:50 09:19 6.44
557 317 GILLANT MICHEL V2 65 10:54:22 09:19 6.44
558 738 DEGAND ALINE D 21 10:55:40 09:20 6.43
559 809 PICHON CLAUDE V3 6 10:55:44 09:20 6.43
560 655 FETTWEIS THIERRY V2 66 10:59:07 09:23 6.39
561 327 DESJARDINS GUILLAUME S 251 10:59:22 09:23 6.39
562 50 LOEUILLET PHILIPPE V2 67 11:01:16 09:25 6.37
563 456 GERARD PASCAL V1 184 11:01:38 09:25 6.37
564 207 WOUTERS ROB V1 185 11:02:56 09:26 6.36
565 395 WILLEMS BRUNO V3 7 11:03:06 09:27 6.35
566 279 DEJAEGHERE BERNARD A 30 11:03:29 09:27 6.35
567 561 GALLE DAVID V1 186 11:03:32 09:27 6.35
568 705 MICHEL FRÉDÉRIC V1 187 11:05:33 09:29 6.33
569 695 BAERT ANN D 22 11:08:31 09:31 6.30
570 506 CIULLA JOSEPH V2 68 11:10:20 09:33 6.29
571 649 FLAMÉ LAURENCE D 23 11:13:25 09:35 6.26
572 646 GROSJEAN ASTRID A 31 11:13:29 09:35 6.26
573 437 BOURGARD GREGORY S 252 11:13:54 09:36 6.25
574 712 LACROSSE JEAN-PIERRE V3 8 11:14:02 09:36 6.25
575 431 BRET JEAN-MARC V1 188 11:14:16 09:36 6.25
576 432 BRET CONSTANT S 253 11:14:19 09:36 6.25
577 642 BASTIN ISABELLE A 32 11:18:40 09:40 6.21
578 849 BASTIN VINCENT V1 189 11:18:44 09:40 6.21
579 601 ANCIAUX LÉON-MICHEL V2 69 11:19:11 09:40 6.20
580 121 CIARNIELLO FABIAN S 254 11:20:30 09:41 6.19
581 362 MULLER SÉBASTIEN V1 190 11:20:41 09:42 6.19
582 489 DE HAES ROLAND V1 191 11:22:35 09:43 6.17
583 875 BURNIATS OLIVIER S 255 11:23:53 09:44 6.16
584 770 VAN DIJK JOANNE D 24 11:25:58 09:46 6.14
585 686 BOUHON FERNAND V2 70 11:27:57 09:48 6.12
586 261 RENARD LIONEL S 256 11:28:00 09:48 6.12
587 470 LÉTÉ PASCAL V2 71 11:28:17 09:48 6.12
588 514 DE VLEESCHOUWER CHRISTOPHE V1 192 11:28:22 09:48 6.12
589 233 GIJZENIJ BIRGIT A 33 11:31:14 09:51 6.10
590 229 VAN DEN HAAK LIESBETH A 34 11:31:15 09:51 6.10
591 55 TEULINGS BAS V2 72 11:31:21 09:51 6.09
592 598 GRZESINSKI BERNARD V2 73 11:35:11 09:54 6.06
593 500 KUYPERS EDOUARD V3 9 11:38:57 09:57 6.03
594 664 SCHROTH ANDREAS V1 193 11:39:32 09:58 6.02
595 154 WATTIAUX COLIN NATHALIE A 35 11:40:40 09:59 6.01
596 335 ANCIAUX FRÉDÉRIC S 257 11:40:43 09:59 6.01
597 707 PIRLOT BERNARD S 258 11:40:47 09:59 6.01
598 289 VAN DEN BLEEKEN DANNY V1 194 11:41:36 09:59 6.01
599 640 BOUCHE PIERRE S 259 11:43:20 10:01 5.99
600 269 PIRONNET ERIC V2 74 11:43:57 10:01 5.99
601 759 LEFEVRE DENIS V1 195 11:44:02 10:02 5.98
602 323 CERTAT JUMMY V1 196 11:46:15 10:03 5.97
603 479 SPIRITO JULIE D 25 11:49:04 10:06 5.94
604 205 RAMAEKERS ISABELLE A 36 11:49:41 10:06 5.94
605 603 MACHIELS PIERRE V1 197 11:51:46 10:08 5.92
606 155 ZEGUERS ERIC V2 75 11:51:48 10:08 5.92
607 679 GILSON QUENTIN S 260 11:57:27 10:13 5.87
608 64 DEMOULIN STEEVE S 261 11:57:30 10:13 5.87
609 310 HEINZ JEAN THIERRY V1 198 11:59:27 10:15 5.86
610 302 SIMON CLAUDE BABOU A 37 11:59:29 10:15 5.86
611 581 STECKEL MANFRED V3 10 11:59:33 10:15 5.86
612 54 NOËL MIGUËL S 262 12:02:44 10:18 5.83
613 742 VAN DE VELDEN NILS S 263 12:02:48 10:18 5.83
614 94 HOUBION MICHAEL S 264 12:03:00 10:18 5.83
615 38 SEPULT FABRICE V1 199 12:03:43 10:18 5.82
616 334 FAUCON FRANCIS V2 76 12:04:16 10:19 5.82
617 873 DELBEUCK AURORE D 26 12:04:51 10:19 5.81
618 262 CALANDE SIMON S 265 12:05:03 10:19 5.81
619 296 BALBEUR JEAN-FRANÇOIS V1 200 12:05:09 10:20 5.81
620 560 CLERIN LAURENT V2 77 12:05:23 10:20 5.81
621 769 GOMES FERREIRA RICARDO S 266 12:15:33 10:28 5.73
622 407 DUBOIS NICOLAS S 267 12:15:34 10:28 5.73
623 856 COLLINET MARC V2 78 12:19:44 10:32 5.70
624 447 BEUSEN BENJAMIN S 268 12:21:12 10:33 5.68
625 724 VERHAEGEN BENOÎT V2 79 12:21:42 10:34 5.68
626 59 IANIRI GÉRALDINE D 27 12:26:44 10:38 5.64
627 35 VAN PROOIJEN WILLEM xxx   12:27:15 10:38 5.64
628 401 DUPONT SVEN V1 201 12:27:23 10:39 5.64
629 669 KAIRIS PATRICK V2 80 12:35:42 10:46 5.58
630 480 KOLENDA STANY V1 202 12:35:49 10:46 5.57
631 471 TRULLEMANS JEAN-LUC V1 203 12:35:53 10:46 5.57
632 105 LEFIN VALÈRIE A 38 12:49:39 10:58 5.47
633 104 SCHMITT MICHEL V1 204 12:49:42 10:58 5.47
634 665 PEVERGNE NATHALIE A 39 12:49:47 10:58 5.47
635 443 DARDENNE ALINE D 28 12:49:49 10:58 5.47
636 567 SCHWENDT HORST V2 81 12:56:51 11:04 5.42
637 413 GROGNARD DIDIER V1 205 14:35:08 12:28 4.81